Downstream station:
SHEF ID: CDPK1 CEDAR C NR CEDAR POINT, KS
STATION TYPE:
Regulating: Stage = 13.00, Flow = 4031
PRECIP STAGE RIV-FLOW BAT-LOAD
in ft cfs volt
Ccp-Rev Ccp-Rev Ccp-Rev Ccp-Rev
(US/Central)
09/03 00:00 0.04 4.21 21 12.36
09/03 01:00 0.00 4.21 21 12.30
09/03 02:00 0.02 4.21 21 12.30
09/03 03:00 0.07 4.22 22 12.30
09/03 04:00 0.01 4.22 22 12.30
09/03 05:00 0.19 4.24 23 12.30
09/03 06:00 0.09 4.25 24 12.30
09/03 07:00 0.01 4.25 24 12.30
09/03 08:00 0.00 4.25 24 12.30
09/03 09:00 0.00 4.25 24 12.30
09/03 10:00 0.00 4.26 25 12.89
09/03 11:00 0.00 4.26 25 13.12
09/03 12:00 0.00 4.27 26 12.83
09/03 13:00 0.00 4.28 26 13.30
09/03 14:00 0.00 4.29 27 13.42
09/03 15:00 0.00 4.29 27 13.00
09/03 16:00 ---- ---- ---- ----
09/03 17:00 ---- 4.30 28 13.24
09/03 18:00 0.00 4.30 28 12.71
09/03 19:00 0.00 4.30 28 12.54
09/03 20:00 0.00 4.30 28 12.36
09/03 21:00 0.00 4.30 28 12.36
09/03 22:00 0.00 4.30 28 12.36
09/03 23:00 0.12 4.31 29 12.36